KAL8551 RKSI-RJAA

Flight info

Callsign KAL8551
Flight time 1h 37m
Altitude 33000
Route EGOBA2C EGOBA Y697 LANAT Y51 SAMON Y517 ESKAS Y303 ENTAK Y30 SWAMP SWAMPG
Aircraft B77L/H-SDE1E2E3FGHIJ2J3J4J5M1RWXY/LB1D1

Departure

Time 2026-05-05 11:57
Airport Incheon International Airport (RKSI)

Arrival

Time 2026-05-05 13:34
Airport Narita International Airport (RJAA)
Time Latitude Longitude Altitude Speed Heading
2026-05-05 11:13 37.46549 126.46712 37 ft 0 kts 144°
2026-05-05 11:37 37.46556 126.46706 37 ft 3 kts 147°
2026-05-05 11:37 37.46573 126.46694 34 ft 3 kts 158°
2026-05-05 11:37 37.46591 126.46686 34 ft 3 kts 173°
2026-05-05 11:38 37.46610 126.46685 35 ft 3 kts 193°
2026-05-05 11:38 37.46626 126.46692 35 ft 3 kts 218°
2026-05-05 11:38 37.46637 126.46704 37 ft 1 kts 234°
2026-05-05 11:38 37.46637 126.46705 37 ft 0 kts 234°
2026-05-05 11:41 37.46624 126.46666 37 ft 10 kts 256°
2026-05-05 11:41 37.46616 126.46579 37 ft 10 kts 265°
2026-05-05 11:42 37.46601 126.46494 35 ft 10 kts 245°
2026-05-05 11:42 37.46564 126.46422 37 ft 10 kts 234°
2026-05-05 11:42 37.46525 126.46350 37 ft 10 kts 235°
2026-05-05 11:42 37.46485 126.46278 37 ft 10 kts 234°
2026-05-05 11:43 37.46456 126.46212 36 ft 0 kts 245°
2026-05-05 11:44 37.46448 126.46193 37 ft 9 kts 245°
2026-05-05 11:44 37.46430 126.46106 37 ft 11 kts 277°
2026-05-05 11:45 37.46473 126.46034 37 ft 11 kts 321°
2026-05-05 11:45 37.46532 126.45980 37 ft 11 kts 326°
2026-05-05 11:45 37.46596 126.45924 37 ft 12 kts 325°
2026-05-05 11:45 37.46664 126.45864 37 ft 12 kts 325°
2026-05-05 11:46 37.46737 126.45800 37 ft 14 kts 325°
2026-05-05 11:46 37.46865 126.45686 37 ft 27 kts 324°
2026-05-05 11:46 37.47021 126.45546 37 ft 27 kts 324°
2026-05-05 11:46 37.47175 126.45408 37 ft 27 kts 324°
2026-05-05 11:47 37.47331 126.45269 37 ft 27 kts 324°
2026-05-05 11:47 37.47444 126.45170 37 ft 16 kts 325°
2026-05-05 11:47 37.47490 126.45129 37 ft 0 kts 324°
2026-05-05 11:50 37.47491 126.45128 37 ft 2 kts 324°
2026-05-05 11:50 37.47536 126.45088 37 ft 10 kts 325°
2026-05-05 11:51 37.47592 126.45037 36 ft 10 kts 324°
2026-05-05 11:51 37.47649 126.44987 37 ft 10 kts 324°
2026-05-05 11:51 37.47720 126.44924 37 ft 15 kts 324°
2026-05-05 11:51 37.47807 126.44846 35 ft 15 kts 325°
2026-05-05 11:52 37.47890 126.44775 37 ft 12 kts 324°
2026-05-05 11:52 37.47954 126.44716 35 ft 12 kts 325°
2026-05-05 11:52 37.48003 126.44659 37 ft 9 kts 288°
2026-05-05 11:52 37.47982 126.44598 37 ft 0 kts 236°
2026-05-05 11:53 37.47981 126.44596 37 ft 2 kts 236°
2026-05-05 11:53 37.47939 126.44519 37 ft 21 kts 235°
2026-05-05 11:53 37.47855 126.44370 37 ft 17 kts 234°
2026-05-05 11:54 37.47822 126.44281 37 ft 10 kts 276°
2026-05-05 11:54 37.47871 126.44216 37 ft 11 kts 323°
2026-05-05 11:54 37.47945 126.44150 37 ft 16 kts 324°
2026-05-05 11:54 37.48049 126.44057 37 ft 19 kts 324°
2026-05-05 11:55 37.48155 126.43962 37 ft 18 kts 325°
2026-05-05 11:55 37.48234 126.43891 37 ft 11 kts 324°
2026-05-05 11:55 37.48255 126.43813 37 ft 10 kts 251°
2026-05-05 11:55 37.48216 126.43737 37 ft 10 kts 234°
2026-05-05 11:56 37.48166 126.43676 36 ft 10 kts 197°
2026-05-05 11:56 37.48101 126.43705 34 ft 8 kts 146°
2026-05-05 11:56 37.48094 126.43711 37 ft 4 kts 144°
2026-05-05 11:56 37.47898 126.43884 37 ft 79 kts 145°
2026-05-05 11:57 37.47177 126.44522 38 ft 171 kts 146°
2026-05-05 11:57 37.46096 126.45504 575 ft 192 kts 134°
2026-05-05 11:57 37.45474 126.46956 1663 ft 195 kts 118°
2026-05-05 11:57 37.44743 126.48445 2363 ft 202 kts 136°
2026-05-05 11:58 37.43718 126.49705 2936 ft 204 kts 141°
2026-05-05 11:58 37.42686 126.50934 3547 ft 213 kts 139°
2026-05-05 11:58 37.41579 126.52354 3775 ft 241 kts 136°
2026-05-05 11:58 37.40391 126.53972 4204 ft 260 kts 134°
2026-05-05 11:59 37.39153 126.55709 4827 ft 273 kts 133°
2026-05-05 11:59 37.37877 126.57520 5002 ft 278 kts 134°
2026-05-05 11:59 37.36354 126.58955 5060 ft 271 kts 163°
2026-05-05 11:59 37.34557 126.59658 5780 ft 273 kts 164°
2026-05-05 12:00 37.32767 126.60422 6624 ft 275 kts 161°
2026-05-05 12:00 37.31139 126.61711 7285 ft 285 kts 131°
2026-05-05 12:00 37.30261 126.63949 8027 ft 292 kts 100°
2026-05-05 12:00 37.30262 126.66508 8825 ft 295 kts 79°
2026-05-05 12:01 37.30790 126.69003 9623 ft 298 kts 72°
2026-05-05 12:01 37.31431 126.71472 10331 ft 303 kts 71°
2026-05-05 12:01 37.32132 126.74062 10672 ft 324 kts 71°
2026-05-05 12:01 37.32889 126.76848 10883 ft 349 kts 71°
2026-05-05 12:02 37.33698 126.79851 11097 ft 373 kts 71°
2026-05-05 12:02 37.34525 126.82958 11689 ft 383 kts 71°
2026-05-05 12:02 37.35368 126.86154 12527 ft 387 kts 72°
2026-05-05 12:02 37.36215 126.89391 13424 ft 389 kts 72°
2026-05-05 12:03 37.37057 126.92624 14315 ft 390 kts 72°
2026-05-05 12:03 37.37906 126.95892 15042 ft 395 kts 72°
2026-05-05 12:03 37.38764 126.99205 15719 ft 400 kts 72°
2026-05-05 12:03 37.39621 127.02521 16417 ft 404 kts 72°
2026-05-05 12:04 37.40494 127.05900 17145 ft 408 kts 72°
2026-05-05 12:04 37.41375 127.09315 17840 ft 412 kts 72°
2026-05-05 12:04 37.42266 127.12779 18472 ft 418 kts 72°
2026-05-05 12:04 37.43167 127.16280 19033 ft 422 kts 72°
2026-05-05 12:05 37.44064 127.19771 19664 ft 425 kts 72°
2026-05-05 12:05 37.44976 127.23328 20280 ft 428 kts 72°
2026-05-05 12:05 37.45896 127.26918 20875 ft 432 kts 72°
2026-05-05 12:05 37.46683 127.30578 21356 ft 435 kts 81°
2026-05-05 12:06 37.46798 127.34400 21853 ft 440 kts 95°
2026-05-05 12:06 37.46233 127.38191 22446 ft 441 kts 107°
2026-05-05 12:06 37.45300 127.41876 22980 ft 445 kts 108°
2026-05-05 12:06 37.44350 127.45560 23501 ft 449 kts 108°
2026-05-05 12:07 37.43382 127.49325 23997 ft 452 kts 108°
2026-05-05 12:07 37.42418 127.53101 24465 ft 456 kts 108°
2026-05-05 12:07 37.41449 127.56919 24910 ft 459 kts 108°
2026-05-05 12:07 37.40477 127.60769 25365 ft 463 kts 107°
2026-05-05 12:08 37.39591 127.64627 25784 ft 466 kts 105°
2026-05-05 12:08 37.38770 127.68590 26203 ft 470 kts 104°
2026-05-05 12:08 37.37929 127.72587 26646 ft 473 kts 105°
2026-05-05 12:08 37.37038 127.76578 27088 ft 477 kts 106°
2026-05-05 12:09 37.36089 127.80592 27521 ft 480 kts 107°
2026-05-05 12:09 37.35098 127.84608 27958 ft 483 kts 108°
2026-05-05 12:09 37.34075 127.88651 28366 ft 486 kts 108°
2026-05-05 12:09 37.33035 127.92710 28750 ft 489 kts 108°
2026-05-05 12:10 37.31981 127.96801 29115 ft 493 kts 108°
2026-05-05 12:10 37.30920 128.00913 29470 ft 496 kts 108°
2026-05-05 12:10 37.29868 128.04994 29812 ft 499 kts 108°
2026-05-05 12:10 37.28797 128.09150 30137 ft 501 kts 108°
2026-05-05 12:11 37.27719 128.13335 30516 ft 501 kts 108°
2026-05-05 12:11 37.26646 128.17501 30934 ft 500 kts 108°
2026-05-05 12:11 37.25576 128.21645 31341 ft 499 kts 108°
2026-05-05 12:11 37.24502 128.25801 31705 ft 500 kts 108°
2026-05-05 12:12 37.23426 128.29958 32038 ft 500 kts 108°
2026-05-05 12:12 37.22364 128.34053 32387 ft 500 kts 109°
2026-05-05 12:12 37.21283 128.38211 32745 ft 500 kts 109°
2026-05-05 12:12 37.20203 128.42361 33008 ft 502 kts 109°
2026-05-05 12:13 37.18019 128.50730 33053 ft 504 kts 109°
2026-05-05 12:13 37.15840 128.59059 33048 ft 499 kts 109°
2026-05-05 12:14 37.13678 128.67292 33051 ft 499 kts 109°
2026-05-05 12:14 37.11496 128.75575 33070 ft 499 kts 109°
2026-05-05 12:15 37.09319 128.83808 33065 ft 501 kts 109°
2026-05-05 12:15 37.07118 128.92110 33060 ft 502 kts 110°
2026-05-05 12:16 37.04908 129.00420 33058 ft 503 kts 110°
2026-05-05 12:16 37.02685 129.08749 33060 ft 505 kts 110°
2026-05-05 12:17 37.00467 129.17037 33058 ft 506 kts 110°
2026-05-05 12:17 36.98213 129.25428 33047 ft 507 kts 110°
2026-05-05 12:18 36.95960 129.33788 33046 ft 507 kts 110°
2026-05-05 12:18 36.93711 129.42114 33054 ft 508 kts 110°
2026-05-05 12:19 36.91440 129.50490 33043 ft 508 kts 111°
2026-05-05 12:19 36.89160 129.58870 33054 ft 509 kts 111°
2026-05-05 12:20 36.86892 129.67182 33055 ft 509 kts 111°
2026-05-05 12:20 36.84591 129.75588 33055 ft 510 kts 111°
2026-05-05 12:21 36.82287 129.83981 33061 ft 510 kts 111°
2026-05-05 12:21 36.79992 129.92310 33065 ft 511 kts 111°
2026-05-05 12:22 36.77670 130.00714 33071 ft 511 kts 111°
2026-05-05 12:22 36.75340 130.09119 33076 ft 512 kts 111°
2026-05-05 12:23 36.73004 130.17522 33081 ft 513 kts 112°
2026-05-05 12:23 36.70675 130.25870 33085 ft 513 kts 112°
2026-05-05 12:24 36.68321 130.34284 33085 ft 514 kts 112°
2026-05-05 12:24 36.65958 130.42702 33090 ft 514 kts 112°
2026-05-05 12:25 36.63590 130.51112 33094 ft 514 kts 112°
2026-05-05 12:25 36.61215 130.59524 33099 ft 515 kts 112°
2026-05-05 12:26 36.58849 130.67875 33105 ft 515 kts 112°
2026-05-05 12:26 36.56454 130.76304 33109 ft 515 kts 112°
2026-05-05 12:27 36.54055 130.84717 33112 ft 516 kts 112°
2026-05-05 12:27 36.51648 130.93135 33116 ft 516 kts 113°
2026-05-05 12:28 36.49252 131.01491 33124 ft 516 kts 113°
2026-05-05 12:28 36.46829 131.09913 33118 ft 517 kts 113°
2026-05-05 12:29 36.44410 131.18297 33128 ft 517 kts 113°
2026-05-05 12:29 36.41971 131.26727 33134 ft 518 kts 113°
2026-05-05 12:30 36.39527 131.35151 33127 ft 518 kts 113°
2026-05-05 12:30 36.37828 131.42308 33134 ft 523 kts 105°
2026-05-05 12:31 36.36914 131.51295 33129 ft 527 kts 95°
2026-05-05 12:31 36.36683 131.60353 33129 ft 528 kts 94°
2026-05-05 12:32 36.36464 131.69501 33147 ft 529 kts 94°
2026-05-05 12:32 36.36198 131.78593 33142 ft 529 kts 95°
2026-05-05 12:33 36.35898 131.87763 33145 ft 530 kts 95°
2026-05-05 12:33 36.35590 131.96856 33149 ft 531 kts 95°
2026-05-05 12:34 36.35276 132.06007 33154 ft 531 kts 95°
2026-05-05 12:34 36.34956 132.15170 33154 ft 532 kts 95°
2026-05-05 12:35 36.34630 132.24330 33154 ft 532 kts 95°
2026-05-05 12:35 36.34295 132.33529 33159 ft 533 kts 95°
2026-05-05 12:36 36.33953 132.42720 33163 ft 533 kts 95°
2026-05-05 12:36 36.33607 132.51860 33163 ft 534 kts 96°
2026-05-05 12:37 36.33250 132.61067 33165 ft 534 kts 96°
2026-05-05 12:37 36.32886 132.70274 33164 ft 534 kts 96°
2026-05-05 12:38 36.32515 132.79499 33166 ft 535 kts 96°
2026-05-05 12:38 36.32139 132.88666 33167 ft 536 kts 96°
2026-05-05 12:39 36.31752 132.97929 33172 ft 537 kts 96°
2026-05-05 12:39 36.31359 133.07149 33172 ft 538 kts 96°
2026-05-05 12:40 36.30956 133.16439 33172 ft 539 kts 96°
2026-05-05 12:40 36.30550 133.25674 33183 ft 540 kts 96°
2026-05-05 12:41 36.30132 133.34961 33167 ft 542 kts 97°
2026-05-05 12:41 36.29705 133.44316 33179 ft 542 kts 97°
2026-05-05 12:42 36.29274 133.53595 33178 ft 542 kts 97°
2026-05-05 12:42 36.28833 133.62935 33176 ft 543 kts 97°
2026-05-05 12:43 36.28384 133.72303 33178 ft 543 kts 97°
2026-05-05 12:43 36.27925 133.81599 33186 ft 544 kts 97°
2026-05-05 12:44 36.27437 133.90995 33185 ft 545 kts 97°
2026-05-05 12:44 36.26944 134.00403 33184 ft 546 kts 97°
2026-05-05 12:45 36.26450 134.09745 33185 ft 547 kts 98°
2026-05-05 12:45 36.25959 134.19161 33183 ft 548 kts 97°
2026-05-05 12:46 36.25467 134.28599 33186 ft 549 kts 98°
2026-05-05 12:46 36.24964 134.38055 33183 ft 550 kts 98°
2026-05-05 12:47 36.24586 134.47496 33185 ft 553 kts 92°
2026-05-05 12:47 36.25298 134.57042 33182 ft 559 kts 81°
2026-05-05 12:48 36.26915 134.66452 33200 ft 565 kts 79°
2026-05-05 12:48 36.28608 134.76055 33192 ft 575 kts 79°
2026-05-05 12:49 36.30271 134.85824 33192 ft 582 kts 80°
2026-05-05 12:49 36.31898 134.95634 33191 ft 585 kts 80°
2026-05-05 12:50 36.33528 135.05551 33190 ft 587 kts 80°
2026-05-05 12:50 36.35155 135.15482 33184 ft 587 kts 80°
2026-05-05 12:51 36.36783 135.25448 33187 ft 588 kts 80°
2026-05-05 12:51 36.38389 135.35334 33193 ft 588 kts 80°
2026-05-05 12:52 36.39998 135.45296 33191 ft 588 kts 81°
2026-05-05 12:52 36.41596 135.55250 33193 ft 588 kts 81°
2026-05-05 12:53 36.43188 135.65217 33192 ft 588 kts 81°
2026-05-05 12:53 36.44760 135.75119 33194 ft 588 kts 81°
2026-05-05 12:54 36.47122 135.90095 33193 ft 589 kts 81°
2026-05-05 12:55 36.48690 136.00113 33190 ft 590 kts 81°
2026-05-05 12:55 36.50251 136.10138 33182 ft 590 kts 81°
2026-05-05 12:56 36.51803 136.20168 33172 ft 591 kts 81°
2026-05-05 12:56 36.53343 136.30173 33168 ft 591 kts 81°
2026-05-05 12:57 36.54881 136.40233 33165 ft 593 kts 81°
2026-05-05 12:57 36.56422 136.50367 33182 ft 599 kts 81°
2026-05-05 12:58 36.57968 136.60600 33184 ft 604 kts 81°
2026-05-05 12:58 36.59507 136.70840 33196 ft 606 kts 81°
2026-05-05 12:59 36.61052 136.81183 33205 ft 607 kts 81°
2026-05-05 12:59 36.62588 136.91523 33174 ft 608 kts 81°
2026-05-05 13:00 36.64838 137.07011 33160 ft 607 kts 82°
2026-05-05 13:01 36.67776 137.27767 33159 ft 607 kts 82°
2026-05-05 13:01 36.69229 137.38087 33175 ft 607 kts 82°
2026-05-05 13:02 36.70685 137.48476 33198 ft 608 kts 82°
2026-05-05 13:02 36.72121 137.58824 33212 ft 608 kts 82°
2026-05-05 13:03 36.73542 137.69216 33266 ft 605 kts 82°
2026-05-05 13:03 36.74975 137.79604 33177 ft 607 kts 82°
2026-05-05 13:04 36.76390 137.89928 33220 ft 608 kts 82°
2026-05-05 13:04 36.77799 138.00364 33221 ft 610 kts 82°
2026-05-05 13:05 36.79210 138.10849 33218 ft 612 kts 82°
2026-05-05 13:05 36.80647 138.21282 33241 ft 614 kts 82°
2026-05-05 13:06 36.82111 138.31846 33247 ft 616 kts 82°
2026-05-05 13:06 36.83548 138.42345 33231 ft 618 kts 82°
2026-05-05 13:07 36.84984 138.52980 33231 ft 619 kts 82°
2026-05-05 13:07 36.86389 138.63594 33248 ft 619 kts 82°
2026-05-05 13:08 36.87784 138.74213 33234 ft 619 kts 82°
2026-05-05 13:08 36.89157 138.84752 33255 ft 617 kts 82°
2026-05-05 13:09 36.90536 138.95364 33270 ft 617 kts 82°
2026-05-05 13:09 36.91901 139.05943 33248 ft 615 kts 82°
2026-05-05 13:10 36.93263 139.16452 33278 ft 615 kts 82°
2026-05-05 13:10 36.94641 139.27027 33294 ft 616 kts 82°
2026-05-05 13:11 36.96006 139.37614 33300 ft 616 kts 82°
2026-05-05 13:11 36.97363 139.48200 33279 ft 617 kts 82°
2026-05-05 13:12 36.98575 139.58767 33270 ft 616 kts 88°
2026-05-05 13:12 36.98333 139.69331 33160 ft 594 kts 99°
2026-05-05 13:13 36.97912 139.74409 32923 ft 580 kts 101°
2026-05-05 13:13 36.97442 139.79376 32668 ft 568 kts 101°
2026-05-05 13:13 36.96960 139.84260 32352 ft 559 kts 101°
2026-05-05 13:13 36.96476 139.88997 32018 ft 551 kts 101°
2026-05-05 13:14 36.95981 139.93721 31622 ft 545 kts 101°
2026-05-05 13:14 36.95456 139.98379 31238 ft 536 kts 104°
2026-05-05 13:14 36.94676 140.02833 30679 ft 513 kts 109°
2026-05-05 13:14 36.93742 140.07076 29616 ft 501 kts 110°
2026-05-05 13:15 36.92734 140.11237 28165 ft 496 kts 111°
2026-05-05 13:15 36.91689 140.15327 26755 ft 491 kts 111°
2026-05-05 13:15 36.90639 140.19290 25576 ft 481 kts 111°
2026-05-05 13:15 36.89568 140.23216 24462 ft 478 kts 111°
2026-05-05 13:16 36.88466 140.27141 23838 ft 477 kts 111°
2026-05-05 13:16 36.87361 140.31021 23336 ft 470 kts 111°
2026-05-05 13:16 36.86265 140.34844 22826 ft 463 kts 111°
2026-05-05 13:16 36.85179 140.38612 22256 ft 460 kts 111°
2026-05-05 13:17 36.84088 140.42347 21647 ft 454 kts 113°
2026-05-05 13:17 36.82653 140.45750 21081 ft 446 kts 129°
2026-05-05 13:17 36.80548 140.48460 20494 ft 424 kts 144°
2026-05-05 13:17 36.78111 140.50439 19544 ft 415 kts 155°
2026-05-05 13:18 36.75507 140.51926 19136 ft 408 kts 159°
2026-05-05 13:18 36.72903 140.53314 18650 ft 406 kts 159°
2026-05-05 13:18 36.70309 140.54695 18109 ft 404 kts 159°
2026-05-05 13:18 36.68599 140.55609 17759 ft 402 kts 159°
2026-05-05 13:19 36.65212 140.57436 17101 ft 398 kts 159°
2026-05-05 13:19 36.63497 140.58365 16772 ft 396 kts 159°
2026-05-05 13:19 36.60161 140.60175 16136 ft 393 kts 159°
2026-05-05 13:19 36.57652 140.61433 15661 ft 384 kts 167°
2026-05-05 13:20 36.55927 140.61902 15449 ft 379 kts 175°
2026-05-05 13:20 36.53299 140.62010 15180 ft 376 kts 187°
2026-05-05 13:20 36.49890 140.61318 14535 ft 375 kts 195°
2026-05-05 13:20 36.48170 140.60833 14139 ft 375 kts 196°
2026-05-05 13:21 36.45624 140.60071 13463 ft 376 kts 197°
2026-05-05 13:21 36.43177 140.59095 12815 ft 373 kts 206°
2026-05-05 13:21 36.40890 140.57699 12585 ft 360 kts 210°
2026-05-05 13:21 36.38725 140.56227 12485 ft 346 kts 211°
2026-05-05 13:22 36.36670 140.54795 12374 ft 333 kts 212°
2026-05-05 13:22 36.34683 140.53404 12265 ft 321 kts 212°
2026-05-05 13:22 36.32782 140.52071 12174 ft 308 kts 212°
2026-05-05 13:22 36.30944 140.50779 12021 ft 298 kts 212°
2026-05-05 13:23 36.29189 140.49544 11792 ft 290 kts 212°
2026-05-05 13:23 36.27443 140.48309 11462 ft 287 kts 212°
2026-05-05 13:23 36.25711 140.47078 11073 ft 286 kts 212°
2026-05-05 13:23 36.23988 140.45845 10694 ft 285 kts 212°
2026-05-05 13:24 36.22276 140.44613 10346 ft 283 kts 212°
2026-05-05 13:24 36.20577 140.43381 9960 ft 279 kts 212°
2026-05-05 13:24 36.18933 140.42187 9257 ft 273 kts 212°
2026-05-05 13:24 36.17322 140.40951 8433 ft 271 kts 217°
2026-05-05 13:25 36.15844 140.39490 7660 ft 269 kts 221°
2026-05-05 13:25 36.14482 140.38035 7315 ft 253 kts 221°
2026-05-05 13:25 36.13192 140.36644 7097 ft 238 kts 222°
2026-05-05 13:25 36.11986 140.35339 6996 ft 224 kts 222°
2026-05-05 13:26 36.10822 140.34075 6802 ft 220 kts 222°
2026-05-05 13:26 36.09679 140.32831 6261 ft 217 kts 222°
2026-05-05 13:26 36.08550 140.31589 5646 ft 219 kts 221°
2026-05-05 13:26 36.07419 140.30325 5256 ft 218 kts 222°
2026-05-05 13:27 36.06312 140.29072 4932 ft 214 kts 222°
2026-05-05 13:27 36.05224 140.27833 4595 ft 211 kts 222°
2026-05-05 13:27 36.04152 140.26609 4225 ft 208 kts 222°
2026-05-05 13:27 36.03001 140.25573 3815 ft 204 kts 206°
2026-05-05 13:28 36.01727 140.24881 3537 ft 198 kts 202°
2026-05-05 13:28 36.00464 140.24325 3245 ft 188 kts 190°
2026-05-05 13:28 35.99181 140.24202 2951 ft 181 kts 183°
2026-05-05 13:28 35.97968 140.24168 2851 ft 169 kts 182°
2026-05-05 13:29 35.96768 140.24136 2863 ft 176 kts 182°
2026-05-05 13:29 35.95539 140.24168 2819 ft 182 kts 169°
2026-05-05 13:29 35.94372 140.24752 2814 ft 181 kts 159°
2026-05-05 13:29 35.93249 140.25423 2793 ft 175 kts 156°
2026-05-05 13:30 35.92194 140.26135 2783 ft 171 kts 154°
2026-05-05 13:30 35.91164 140.26867 2798 ft 172 kts 153°
2026-05-05 13:30 35.90139 140.27607 2799 ft 173 kts 153°
2026-05-05 13:30 35.89100 140.28361 2790 ft 174 kts 153°
2026-05-05 13:31 35.88049 140.29126 2535 ft 173 kts 153°
2026-05-05 13:31 35.87040 140.29862 2312 ft 161 kts 153°
2026-05-05 13:31 35.86107 140.30541 2114 ft 150 kts 153°
2026-05-05 13:31 35.85211 140.31191 1899 ft 149 kts 153°
2026-05-05 13:32 35.84310 140.31845 1709 ft 151 kts 153°
2026-05-05 13:32 35.83411 140.32498 1504 ft 151 kts 153°
2026-05-05 13:32 35.82509 140.33152 1291 ft 149 kts 153°
2026-05-05 13:32 35.81611 140.33805 1089 ft 151 kts 153°
2026-05-05 13:33 35.80698 140.34475 911 ft 157 kts 152°
2026-05-05 13:33 35.79751 140.35169 711 ft 162 kts 151°
2026-05-05 13:33 35.78766 140.35876 500 ft 165 kts 151°
2026-05-05 13:33 35.77774 140.36599 277 ft 165 kts 150°
2026-05-05 13:34 35.76802 140.37292 148 ft 151 kts 149°
2026-05-05 13:34 35.76062 140.37824 148 ft 98 kts 149°
2026-05-05 13:34 35.75665 140.38111 151 ft 35 kts 149°
2026-05-05 13:34 35.75534 140.38274 150 ft 20 kts 121°
2026-05-05 13:35 35.75484 140.38378 149 ft 11 kts 119°
2026-05-05 13:35 35.75478 140.38460 149 ft 11 kts 42°
2026-05-05 13:35 35.75552 140.38450 149 ft 11 kts 330°
2026-05-05 13:35 35.75619 140.38398 149 ft 11 kts 330°
2026-05-05 13:36 35.75688 140.38350 149 ft 11 kts 330°
2026-05-05 13:36 35.75760 140.38298 149 ft 15 kts 329°
2026-05-05 13:36 35.75901 140.38197 148 ft 32 kts 329°
2026-05-05 13:36 35.76120 140.38037 148 ft 32 kts 331°
2026-05-05 13:37 35.76298 140.37910 148 ft 29 kts 329°
2026-05-05 13:37 35.76473 140.37783 148 ft 29 kts 329°
2026-05-05 13:37 35.76646 140.37659 148 ft 29 kts 329°
2026-05-05 13:37 35.76820 140.37534 148 ft 29 kts 330°
2026-05-05 13:38 35.76969 140.37426 147 ft 16 kts 330°
2026-05-05 13:38 35.77043 140.37397 148 ft 10 kts 24°
2026-05-05 13:38 35.77084 140.37469 148 ft 10 kts 59°
2026-05-05 13:38 35.77121 140.37545 148 ft 10 kts 58°
2026-05-05 13:39 35.77156 140.37621 148 ft 10 kts 60°
2026-05-05 13:39 35.77194 140.37696 148 ft 10 kts 58°
2026-05-05 13:39 35.77229 140.37771 148 ft 5 kts 60°
2026-05-05 13:39 35.77229 140.37772 148 ft 0 kts 60°